FW4509 Weather Reports


time (UTC)temp
C
wind
direction
speed
KPH
gust
KPH
rain 1hr
cm
rain 24hr
cm
rain mn
cm
humidity
%
barometer
mb
20260505173144 11 1 3.2 4.8 0.00 1.22 1.22 94 1055.7
20260505172140 11 6 3.2 4.8 0.00 1.22 1.22 94 1055.7
20260505171143 11 14 4.8 6.4 0.00 1.22 1.22 95 1055.7
20260505170140 11 46 3.2 4.8 0.00 1.22 1.22 96 1055.6
20260505165141 11 14 6.4 9.7 0.00 1.22 1.22 95 1055.7
20260505165043 11 358 4.8 6.4 0.00 1.22 1.22 96 1055.7
20260505164040 10 32 3.2 4.8 0.00 1.22 1.22 96 1055.7
20260505163941 10 323 6.4 11.3 0.00 1.22 1.22 96 1055.7
20260505162959 10 23 3.2 6.4 0.00 1.22 1.22 95 1055.5
20260505161041 10 15 4.8 6.4 0.00 1.22 1.22 96 1055.4
20260505152942 10 64 3.2 6.4 0.05 1.22 1.22 95 1054.7
20260505152041 10 22 1.6 4.8 0.10 1.22 1.22 95 1054.4
20260505151041 10 35 6.4 16.1 0.23 1.22 1.22 96 1054.2
20260505124042 13 157 0.0 1.6 0.00 0.36 0.36 95 1053.4
20260505123140 13 270 0.0 0.0 0.00 0.36 0.36 95 1053.5
20260505122141 13 360 0.0 0.0 0.00 0.36 0.36 95 1053.7
20260505121157 13 295 1.6 4.8 0.00 0.36 0.36 95 1053.6
20260505120142 13 225 0.0 0.0 0.00 0.36 0.36 95 1053.0
20260505114241 13 67 0.0 0.0 0.00 0.36 0.36 93 1052.8
20260505113241 13 67 0.0 0.0 0.00 0.36 0.36 93 1052.8
20260505112243 13 67 0.0 0.0 0.00 0.36 0.36 92 1052.7
20260505111243 13 67 0.0 0.0 0.00 0.36 0.36 93 1052.7
20260505110341 13 67 0.0 0.0 0.00 0.36 0.36 92 1052.6
20260505101343 14 270 0.0 0.0 0.03 0.36 0.36 90 1052.7
20260505100341 14 270 0.0 0.0 0.03 0.36 0.36 90 1052.7
20260505100241 14 270 0.0 0.0 0.03 0.36 0.36 89 1052.9
20260505094257 14 270 0.0 0.0 0.13 0.36 0.36 88 1053.0
20260505094139 14 270 0.0 0.0 0.15 0.36 0.36 89 1053.0
20260505093140 14 270 0.0 0.0 0.36 0.36 0.36 87 1053.0
20260505093042 14 270 0.0 0.0 0.36 0.36 0.36 86 1053.1
20260505092140 15 270 0.0 0.0 0.36 0.36 0.36 85 1053.1
20260505091142 15 270 0.0 0.0 0.33 0.33 0.33 83 1053.4
20260505090142 15 270 0.0 3.2 0.33 0.33 0.33 82 1053.8
20260505085141 16 301 1.6 4.8 0.30 0.30 0.30 77 1053.8
20260505084140 18 315 4.8 8.0 0.20 0.20 0.20 67 1053.7
20260505083141 18 243 4.8 8.0 0.00 0.00 0.00 63 1053.6
20260505082240 18 315 8.0 17.7 0.00 0.00 0.00 62 1053.6
20260505081340 18 203 0.0 6.4 0.00 0.00 0.00 62 1052.1
20260505081241 18 184 4.8 9.7 0.00 0.00 0.00 62 1052.2
20260505080341 18 45 1.6 6.4 0.00 0.00 0.00 61 1052.3
20260505075439 18 240 0.0 1.6 0.00 0.00 0.00 61 1052.4
20260505074441 18 182 1.6 4.8 0.00 0.00 0.00 60 1052.4
20260505073441 18 200 3.2 9.7 0.00 0.00 0.00 60 1052.4
20260505072539 19 220 3.2 6.4 0.00 0.00 0.00 61 1052.4
20260505071448 19 231 1.6 8.0 0.00 0.00 0.00 61 1052.5
20260505071340 19 173 3.2 11.3 0.00 0.00 0.00 60 1052.5
20260505070358 19 249 1.6 4.8 0.00 0.00 0.00 60 1052.5
20260505065440 19 271 4.8 9.7 0.00 0.00 0.00 60 1052.3
20260505063341 19 225 1.6 9.7 0.00 0.00 0.00 59 1052.2
20260505062340 19 212 3.2 11.3 0.00 0.00 0.00 59 1052.1
20260505062240 19 214 4.8 11.3 0.00 0.00 0.00 58 1052.2
20260505061242 19 257 4.8 8.0 0.00 0.00 0.00 58 1052.2
20260505060340 20 193 3.2 6.4 0.00 0.00 0.00 59 1052.0
20260505055342 20 186 8.0 16.1 0.00 0.00 0.00 58 1051.9
20260505054341 19 208 4.8 6.4 0.00 0.00 0.00 58 1051.7
20260505054241 19 201 3.2 8.0 0.00 0.00 0.00 59 1051.7
20260505053242 20 62 0.0 4.8 0.00 0.00 0.00 59 1051.6
20260505052241 20 48 1.6 8.0 0.00 0.00 0.00 59 1051.6
20260505051242 20 218 4.8 9.7 0.00 0.00 0.00 58 1051.4
20260505050341 20 229 1.6 3.2 0.00 0.00 0.00 58 1051.3
20260505041343 20 186 4.8 9.7 0.00 0.00 0.00 58 1051.6
20260505040343 20 180 0.0 1.6 0.00 0.00 0.00 57 1051.9
20260505035357 20 182 1.6 8.0 0.00 0.00 0.00 57 1051.9
20260505033542 20 187 4.8 9.7 0.00 0.00 0.00 56 1051.7
20260505032557 20 224 1.6 11.3 0.00 0.00 0.00 55 1051.8
20260505031640 20 165 3.2 9.7 0.00 0.00 0.00 54 1051.9
20260505030644 20 225 3.2 8.0 0.00 0.00 0.00 55 1051.7
20260505025641 20 148 0.0 4.8 0.00 0.00 0.00 55 1051.7
20260505024643 20 122 1.6 4.8 0.00 0.00 0.00 53 1051.4
20260505024543 20 139 0.0 3.2 0.00 0.00 0.00 54 1051.4
20260505023543 21 179 3.2 8.0 0.00 0.00 0.00 52 1051.3
20260505022641 21 102 3.2 8.0 0.00 0.00 0.00 53 1051.2
20260505021740 21 153 0.0 9.7 0.00 0.00 0.00 52 1051.2
20260505021641 21 164 4.8 9.7 0.00 0.00 0.00 53 1051.3
20260505020641 21 103 4.8 11.3 0.00 0.00 0.00 51 1051.1
20260505015641 21 199 4.8 8.0 0.00 0.00 0.00 51 1050.9
20260505014739 21 96 1.6 6.4 0.00 0.00 0.00 50 1050.8
20260505014642 21 205 1.6 9.7 0.00 0.00 0.00 51 1050.8
20260505013740 21 169 1.6 6.4 0.00 0.00 0.00 50 1050.7
20260505012757 21 250 1.6 6.4 0.00 0.00 0.00 50 1050.8
20260505010741 22 191 1.6 6.4 0.00 0.00 0.00 49 1050.3
20260505010641 22 215 3.2 8.0 0.00 0.00 0.00 49 1050.3
20260505005642 22 152 1.6 4.8 0.00 0.00 0.00 48 1050.2
20260505004740 22 140 3.2 4.8 0.00 0.00 0.00 47 1050.3
20260505003741 22 175 6.4 14.5 0.00 0.00 0.00 45 1050.3
20260505001840 23 186 3.2 8.0 0.00 0.00 0.00 45 1050.0
20260505000842 23 220 6.4 12.9 0.00 0.00 0.00 44 1050.1
20260504235939 23 228 8.0 19.3 0.00 0.00 0.00 43 1049.7
20260504234942 24 279 3.2 9.7 0.00 0.00 0.00 43 1049.7
20260504234041 24 147 1.6 6.4 0.00 0.00 0.00 42 1049.8
20260504232140 24 358 1.6 6.4 0.00 0.00 0.00 44 1050.0
20260504232039 24 156 4.8 11.3 0.00 0.00 0.00 43 1050.0
20260504231041 24 217 3.2 11.3 0.00 0.00 0.00 43 1050.3
20260504230058 24 186 3.2 8.0 0.00 0.00 0.00 43 1050.3
20260504225042 24 54 1.6 4.8 0.00 0.00 0.00 44 1050.3
20260504224141 23 149 4.8 12.9 0.00 0.00 0.00 44 1050.3
20260504222141 23 185 4.8 11.3 0.00 0.00 0.00 46 1050.6
20260504221240 23 170 6.4 12.9 0.00 0.00 0.00 45 1050.6
20260504214358 21 139 4.8 9.7 0.00 0.00 0.00 49 1050.3
20260504211341 21 88 3.2 4.8 0.00 0.00 0.00 45 1053.1
20260504210339 21 180 0.0 3.2 0.00 0.00 0.00 46 1053.0
20260504204341 22 67 1.6 1.6 0.00 0.00 0.00 44 1053.2
20260504203342 22 183 1.6 3.2 0.00 0.00 0.00 43 1053.5
20260504202440 22 315 0.0 0.0 0.00 0.00 0.00 44 1053.5
20260504201441 22 22 0.0 0.0 0.00 0.00 0.00 43 1053.3
20260504200442 22 285 3.2 8.0 0.00 0.00 0.00 41 1053.3
20260504200341 22 229 0.0 0.0 0.00 0.00 0.00 42 1053.1
20260504195342 22 251 1.6 4.8 0.00 0.00 0.00 42 1053.1
20260504194439 23 182 4.8 12.9 0.00 0.00 0.00 43 1052.9
20260504193441 23 194 6.4 14.5 0.00 0.00 0.00 42 1053.0
20260504192441 23 182 4.8 11.3 0.00 0.00 0.00 42 1053.0
20260504191441 23 219 4.8 9.7 0.00 0.00 0.00 44 1052.9
20260504190440 23 230 4.8 11.3 0.00 0.00 0.00 47 1052.7
20260504185439 23 171 3.2 9.7 0.00 0.00 0.00 49 1052.4
20260504183557 23 158 3.2 8.0 0.00 0.00 0.00 52 1052.2
20260504182640 22 180 0.0 1.6 0.00 0.00 0.00 52 1052.2
20260504181639 22 162 3.2 9.7 0.00 0.00 0.00 54 1052.7
20260504175643 22 201 3.2 8.0 0.00 0.00 0.00 53 1052.8
20260504175557 22 171 3.2 6.4 0.00 0.00 0.00 54 1052.9
20260504174641 22 214 4.8 8.0 0.00 0.00 0.00 54 1053.0
20260504173741 22 165 1.6 8.0 0.00 0.00 0.00 54 1053.3